[[{"header":{"parameterUnit":"m.s-1","parameterCategory":1,"la1":30.2991,"la2":30.254,"lo1":-89.0895,"lo2":-89.0444,"dy":0.0017,"dx":0.0017,"nx":28,"ny":28,"refTime":"2024-08-18T03:00:00:Z","depth":0,"parameterNumber":2,"parameterNumberName":"U-component_of_WINDS"},"data":[0,0,0,0,0,0,0,0,0,0,0,0,0,0,0,0,0,0,0,0,0,0,0,0,0,0,0,0,0,0,0,0,0,0,0,0,0,0,0,0,0,0,0,0,0,0,0,0,0,0,0,0,0,0,0,0,0,0,3.0141,3.0143,0,3.0298,3.0299,3.0301,3.0246,3.0243,3.0239,3.0236,3.0401,3.0408,3.0416,0,0,0,0,0,0,0,0,0,0,0,0,0,2.9799,2.9805,3.0141,3.0143,3.0145,3.0297,3.0299,3.0302,3.0247,3.0243,3.0238,3.0234,3.0398,3.0407,3.0416,0,0,0,0,0,0,0,0,0,0,0,0,0,2.9951,2.9807,3.0141,3.0136,3.0137,3.0297,3.0299,3.0302,3.0248,3.0242,3.0237,3.0232,3.0395,3.0406,3.0418,3.0593,0,0,3.0453,3.0458,0,0,0,0,0,0,0,0,2.9942,2.9963,3.0135,3.0136,3.0138,3.0247,3.0239,3.04,3.0249,3.0206,3.0236,3.023,3.0354,3.0369,3.041,3.0601,3.0608,3.0454,3.0461,3.0466,3.0469,0,0,0,0,0,0,0,2.9932,2.9956,3.0203,3.0137,3.0139,3.0127,3.0143,3.0269,3.0308,3.0209,3.0206,3.0225,3.0354,3.0399,3.0413,3.061,3.0453,3.0464,3.0471,3.0475,3.0954,3.0959,0,0,0,0,0,0,2.992,2.9948,3.0198,3.0208,3.0025,3.0137,3.0155,3.0217,3.0306,3.0314,3.0229,3.0221,3.0382,3.04,3.0419,3.0631,3.0466,3.0476,3.0483,3.0948,3.0955,3.0961,0,0,0,0,0,0,2.9912,2.9942,3.0192,3.0077,3.0108,3.0149,3.0219,3.0223,3.0268,3.0321,3.0328,3.0267,3.0378,3.0403,3.055,3.0635,3.0481,3.0492,3.0941,3.095,3.0958,3.1055,0,0,0,0,0,0,2.9903,2.994,3.0006,3.0079,3.0114,3.032,3.0224,3.023,3.0287,3.0279,3.0359,3.0367,3.0376,3.0533,3.0561,3.0648,3.0501,3.0934,3.0945,3.0955,3.1045,3.1066,3.1085,0,0,0,0,0,2.9891,3.0029,3.001,3.0041,3.0197,3.0325,3.0345,3.0351,3.0294,3.0362,3.0396,3.0364,3.0621,3.0549,3.058,3.0672,3.0928,3.0942,3.0955,3.1036,3.1062,3.1084,0,0,0,0,0,0,2.9967,3.0038,3.0018,3.0183,3.0248,3.0315,3.0401,3.0379,3.0463,3.0452,3.0457,3.0476,3.0628,3.0664,3.0582,3.0846,3.0766,3.0786,3.0817,3.0843,3.0862,3.0851,3.051,0,0,0,0,0,3.0003,3.0099,3.0156,3.0296,3.0329,3.036,3.0415,3.0414,3.0482,3.051,3.0555,3.0623,3.0719,3.0783,3.0874,3.1049,3.1066,3.1128,3.1148,3.1164,3.1182,3.1278,3.1306,3.1005,3.1004,3.1004,0,0,3.0079,3.0129,3.019,3.0313,3.0363,3.0464,3.0383,3.0493,3.0568,3.0527,3.0669,3.0704,3.0781,3.0943,3.1017,3.0978,3.1268,3.1181,3.1193,3.1202,3.1294,3.1323,3.1348,3.1013,3.1012,3.101,0,0,3.0268,3.0315,3.0437,3.0489,3.0565,3.0584,3.0613,3.0683,3.0705,3.0846,3.0818,3.0908,3.1073,3.1129,3.1179,3.1388,3.1363,3.1418,3.1524,3.1617,3.1641,3.1662,3.1738,3.1765,3.1435,3.1435,3.1435,0,3.0353,3.0502,3.0503,3.0616,3.0671,3.0636,3.0761,3.0811,3.0914,3.0954,3.0908,3.1115,3.1164,3.1339,3.139,3.1431,3.1466,3.141,3.1637,3.1658,3.1678,3.1751,3.1779,3.1442,3.1441,3.144,3.144,0,3.0604,3.0707,3.0797,3.0896,3.0961,3.1079,3.1099,3.1165,3.1158,3.1182,3.1327,3.1385,3.1487,3.1528,3.1523,3.1703,3.1677,3.1634,3.1554,3.1713,3.1781,3.1809,3.1451,3.1448,3.1446,3.1445,0,0,3.0848,3.0944,3.0977,3.1022,3.1102,3.1184,3.13,3.1398,3.1456,3.1527,3.1626,3.1766,3.1727,3.1784,3.1784,3.1866,3.203,3.1814,3.1816,3.1853,3.2233,3.2265,3.2297,3.2012,3.2017,3.2022,3.2227,0,3.1045,3.1248,3.1252,3.1439,3.1536,3.1503,3.1605,3.1666,3.1691,3.1778,3.1806,3.1905,3.1845,3.188,3.1959,3.1993,3.2106,3.1978,3.2106,3.2111,3.209,3.2333,3.2368,3.2559,3.2253,3.2258,3.2261,0,3.1303,3.1382,3.1578,3.1644,3.1685,3.1776,3.1866,3.1949,3.2018,3.203,3.2093,3.2081,3.2201,3.2116,3.2282,3.2195,3.2247,3.2271,3.2279,3.2293,3.2197,3.2355,3.262,3.2649,3.2303,3.23,3.2296,0,3.1464,3.1618,3.1756,3.1794,3.1875,3.194,3.1977,3.204,3.2099,3.2178,3.2217,3.2309,3.2361,3.2433,3.2447,3.2383,3.2614,3.253,3.263,3.263,3.2682,3.2679,3.296,3.2713,3.2712,3.2712,3.2711,0,3.1685,3.1807,3.1829,3.1914,3.2049,3.2052,3.2187,3.2219,3.2275,3.2367,3.2344,3.243,3.2442,3.2532,3.2544,3.268,3.2703,3.2718,3.272,3.2721,3.272,3.2757,3.2745,3.2719,3.2717,3.2716,3.2715,0,3.1889,3.1908,3.2056,3.2119,3.2138,3.2235,3.229,3.2372,3.2393,3.2509,3.2536,3.2571,3.2676,3.2696,3.282,3.2828,3.2991,3.2979,3.2967,3.2967,3.3066,3.3057,3.3384,3.3427,3.3149,3.3152,3.3154,0,3.203,3.2123,3.2195,3.2254,3.2293,3.2388,3.2447,3.2454,3.2517,3.2601,3.2673,3.2775,3.2856,3.3025,3.3063,3.3157,3.3148,3.3256,3.3163,3.3161,3.3152,3.3147,3.3157,3.3275,3.3278,3.328,3.3282,0,3.2279,3.2283,3.2369,3.2458,3.2529,3.26,3.2667,3.2717,3.2732,3.2804,3.2909,3.2973,3.3098,3.32,3.3294,3.3333,3.3312,3.3311,3.3339,3.3343,3.3333,3.3341,3.3018,3.3304,3.3302,3.33,3.3299,3.3298,3.2457,3.2538,3.2601,3.2697,3.2748,3.2811,3.289,3.2921,3.3009,3.311,3.3108,3.3224,3.329,3.3414,3.3459,3.3551,3.3517,3.3558,3.3569,3.3579,3.3589,3.3316,3.3568,3.3567,3.3567,3.3566,3.3566,0,3.2706,3.2745,3.2833,3.2926,3.3002,3.2972,3.3044,3.311,3.3212,3.3274,3.3355,3.3476,3.3574,3.3618,3.3715,3.378,3.3773,3.3806,3.3802,3.3812,3.3613,3.358,3.381,3.381,3.381,3.381,3.381,3.381,3.2845,3.298,3.2992,3.3152,3.319,3.3302,3.3346,3.3404,3.3454,3.359,3.3671,3.3698,3.3754,3.3854,3.3943,3.3953,3.3991,3.4029,3.4035,3.385,3.3825,3.3802,3.377,3.4037,3.4037,3.4226,3.4228,3.4229]},{"header":{"parameterUnit":"m.s-1","parameterCategory":1,"la1":30.2991,"la2":30.254,"lo1":-89.0895,"lo2":-89.0444,"dy":0.0017,"dx":0.0017,"nx":28,"ny":28,"refTime":"2024-08-18T03:00:00:Z","depth":0,"parameterNumber":3,"parameterNumberName":"V-component_of_WINDS"},"data":[0,0,0,0,0,0,0,0,0,0,0,0,0,0,0,0,0,0,0,0,0,0,0,0,0,0,0,0,0,0,0,0,0,0,0,0,0,0,0,0,0,0,0,0,0,0,0,0,0,0,0,0,0,0,0,0,0,0,-0.8922,-0.8922,0,-0.8937,-0.8938,-0.8938,-0.8939,-0.8939,-0.8939,-0.8939,-0.8954,-0.8955,-0.8955,0,0,0,0,0,0,0,0,0,0,0,0,0,-0.8893,-0.8894,-0.8922,-0.8922,-0.8922,-0.8937,-0.8938,-0.8938,-0.8939,-0.8939,-0.8939,-0.8939,-0.8954,-0.8955,-0.8955,0,0,0,0,0,0,0,0,0,0,0,0,0,-0.8907,-0.8894,-0.8922,-0.8925,-0.8925,-0.8937,-0.8938,-0.8938,-0.894,-0.8939,-0.8939,-0.8939,-0.8954,-0.8955,-0.8955,-0.8965,0,0,-0.8958,-0.8958,0,0,0,0,0,0,0,0,-0.8906,-0.8908,-0.8924,-0.8925,-0.8925,-0.8936,-0.8933,-0.8947,-0.894,-0.8934,-0.8939,-0.8939,-0.8948,-0.895,-0.8953,-0.8966,-0.8967,-0.8958,-0.8958,-0.8959,-0.8959,0,0,0,0,0,0,0,-0.8905,-0.8907,-0.8928,-0.8924,-0.8925,-0.8925,-0.8927,-0.8936,-0.8942,-0.8935,-0.8935,-0.8937,-0.8949,-0.8952,-0.8953,-0.8967,-0.8958,-0.8959,-0.8959,-0.896,-0.8989,-0.8989,0,0,0,0,0,0,-0.8904,-0.8906,-0.8927,-0.8928,-0.8915,-0.8926,-0.8928,-0.8933,-0.8942,-0.8943,-0.8937,-0.8937,-0.8951,-0.8952,-0.8954,-0.8966,-0.8959,-0.896,-0.896,-0.8989,-0.8989,-0.8989,0,0,0,0,0,0,-0.8903,-0.8906,-0.8927,-0.8918,-0.892,-0.8927,-0.8932,-0.8933,-0.8937,-0.8944,-0.8945,-0.8939,-0.8951,-0.8953,-0.8963,-0.8967,-0.896,-0.8961,-0.8988,-0.8989,-0.8989,-0.8991,0,0,0,0,0,0,-0.8902,-0.8905,-0.8909,-0.8918,-0.8921,-0.8935,-0.8933,-0.8934,-0.8939,-0.8938,-0.8947,-0.8948,-0.8951,-0.8961,-0.8963,-0.8968,-0.8961,-0.8988,-0.8989,-0.8989,-0.899,-0.8991,-0.8992,0,0,0,0,0,-0.8901,-0.8909,-0.8909,-0.8912,-0.8926,-0.8936,-0.8937,-0.8941,-0.8939,-0.8943,-0.8947,-0.8947,-0.8966,-0.8962,-0.8965,-0.8969,-0.8988,-0.8988,-0.8989,-0.899,-0.8991,-0.8992,0,0,0,0,0,0,-0.89,-0.891,-0.8911,-0.8921,-0.8928,-0.8936,-0.8941,-0.8942,-0.8949,-0.8948,-0.8952,-0.8954,-0.8964,-0.8968,-0.8963,-0.898,-0.8977,-0.8978,-0.8977,-0.8978,-0.8979,-0.8977,-0.8962,0,0,0,0,0,-0.8901,-0.8909,-0.8917,-0.8925,-0.8928,-0.8934,-0.8938,-0.8941,-0.8947,-0.895,-0.8955,-0.8962,-0.8969,-0.8974,-0.8981,-0.8991,-0.8993,-0.8996,-0.8996,-0.8997,-0.8998,-0.9004,-0.9005,-0.8991,-0.8991,-0.8991,0,0,-0.8903,-0.891,-0.8914,-0.8925,-0.893,-0.8938,-0.8936,-0.8944,-0.895,-0.8951,-0.8961,-0.8965,-0.8972,-0.8983,-0.8987,-0.8986,-0.9002,-0.8998,-0.8998,-0.8999,-0.9005,-0.9006,-0.9007,-0.8992,-0.8992,-0.8992,0,0,-0.8911,-0.8916,-0.8924,-0.893,-0.8938,-0.8942,-0.8944,-0.8952,-0.8955,-0.8965,-0.8966,-0.8973,-0.8985,-0.899,-0.8995,-0.9005,-0.9006,-0.9007,-0.9011,-0.9017,-0.9019,-0.902,-0.9024,-0.9025,-0.9008,-0.9008,-0.9008,0,-0.8912,-0.8924,-0.8928,-0.8936,-0.8941,-0.8943,-0.8951,-0.8956,-0.8966,-0.8969,-0.8968,-0.8984,-0.8989,-0.9001,-0.9004,-0.9007,-0.9009,-0.9006,-0.9018,-0.9019,-0.902,-0.9024,-0.9025,-0.9008,-0.9008,-0.9008,-0.9008,0,-0.8926,-0.8934,-0.8939,-0.8949,-0.8954,-0.8962,-0.8968,-0.8973,-0.8975,-0.8979,-0.8989,-0.8995,-0.9004,-0.9007,-0.9009,-0.9019,-0.9018,-0.9017,-0.9014,-0.9022,-0.9025,-0.9027,-0.9009,-0.9009,-0.9009,-0.9009,0,0,-0.8933,-0.8945,-0.8947,-0.8952,-0.8961,-0.8968,-0.8976,-0.8984,-0.8989,-0.8996,-0.9003,-0.9014,-0.9013,-0.9018,-0.9021,-0.9026,-0.9034,-0.9025,-0.9025,-0.9026,-0.9046,-0.9047,-0.9049,-0.9035,-0.9035,-0.9035,-0.9046,0,-0.8942,-0.8956,-0.8961,-0.8973,-0.8981,-0.8983,-0.899,-0.8997,-0.9001,-0.9008,-0.9012,-0.902,-0.9019,-0.9022,-0.9027,-0.9032,-0.9038,-0.9031,-0.9041,-0.9042,-0.9039,-0.905,-0.9051,-0.9061,-0.9047,-0.9048,-0.9048,0,-0.8954,-0.8961,-0.8975,-0.8984,-0.8987,-0.8993,-0.9002,-0.9009,-0.9016,-0.9019,-0.9025,-0.9027,-0.9036,-0.9032,-0.9045,-0.904,-0.9044,-0.9047,-0.9048,-0.9049,-0.9045,-0.9052,-0.9064,-0.9066,-0.905,-0.905,-0.905,0,-0.8958,-0.8971,-0.8981,-0.8985,-0.8996,-0.9,-0.9005,-0.9012,-0.9018,-0.9025,-0.9028,-0.9037,-0.9041,-0.9048,-0.9052,-0.9049,-0.9064,-0.9061,-0.9067,-0.9067,-0.907,-0.9069,-0.9083,-0.9072,-0.9072,-0.9072,-0.9072,0,-0.8967,-0.8976,-0.8983,-0.899,-0.8999,-0.9004,-0.9013,-0.9017,-0.9024,-0.9031,-0.9033,-0.904,-0.9045,-0.9053,-0.9056,-0.9066,-0.9068,-0.907,-0.9071,-0.907,-0.907,-0.9073,-0.9073,-0.9073,-0.9072,-0.9072,-0.9072,0,-0.8974,-0.8979,-0.899,-0.8999,-0.9002,-0.9008,-0.9016,-0.9022,-0.9027,-0.9036,-0.9038,-0.9045,-0.9054,-0.9059,-0.907,-0.9072,-0.9083,-0.9084,-0.9081,-0.9081,-0.9086,-0.9086,-0.9102,-0.9105,-0.9092,-0.9093,-0.9093,0,-0.8979,-0.8986,-0.8996,-0.9001,-0.9006,-0.9014,-0.9019,-0.9024,-0.903,-0.9039,-0.9044,-0.9053,-0.9061,-0.9075,-0.9081,-0.9089,-0.909,-0.9095,-0.9091,-0.909,-0.909,-0.909,-0.9091,-0.9096,-0.9096,-0.9096,-0.9096,0,-0.8989,-0.8992,-0.9,-0.9009,-0.9015,-0.9022,-0.903,-0.9034,-0.904,-0.9046,-0.9055,-0.9061,-0.9073,-0.9082,-0.9091,-0.9095,-0.9097,-0.9097,-0.9099,-0.9098,-0.9096,-0.9098,-0.9083,-0.9097,-0.9097,-0.9097,-0.9097,-0.9097,-0.8996,-0.9002,-0.901,-0.9019,-0.9025,-0.9031,-0.9038,-0.9043,-0.9051,-0.9061,-0.9063,-0.9073,-0.9081,-0.9094,-0.9098,-0.9106,-0.9105,-0.9108,-0.9108,-0.9109,-0.9109,-0.9095,-0.9108,-0.9108,-0.9108,-0.9108,-0.9108,0,-0.9006,-0.9011,-0.9019,-0.903,-0.9037,-0.9038,-0.9046,-0.9052,-0.906,-0.9068,-0.9075,-0.9086,-0.9095,-0.9102,-0.9111,-0.9116,-0.9117,-0.9118,-0.9118,-0.9119,-0.911,-0.9107,-0.9117,-0.9117,-0.9117,-0.9117,-0.9117,-0.9117,-0.9012,-0.9022,-0.9026,-0.9039,-0.9045,-0.9055,-0.9059,-0.9066,-0.9072,-0.9084,-0.9091,-0.9096,-0.9103,-0.9113,-0.9121,-0.9123,-0.9126,-0.9127,-0.9129,-0.912,-0.9119,-0.9118,-0.9116,-0.9128,-0.9128,-0.9138,-0.9138,-0.9138]}]]